Location: Goettingen
(51.5300°N, 9.9433°E)
Time: 20:50:29
(UTC+02:00)

ISS - Pass Details

Date: 27 May 2017
Orbit: 400 x 408 km, 51.6° (Epoch: 20 July)

Event Time Altitude Azimuth Distance (km) Brightness Sun altitude
Rises 22:16:38 0° 237° (WSW) 2,339 0.2 -7.0°
Reaches altitude 10° 22:18:46 10° 232° (SW) 1,479 -0.9 -7.2°
Maximum altitude 22:21:58 47° 157° (SSE) 554 -3.5 -7.5°
Drops below altitude 10° 22:25:10 10° 82° (E) 1,480 -1.3 -7.9°
Enters shadow 22:31:39 -13° 73° (ENE) 4,123 1.1 -8.5°
